Regional Weather Roundup
Issued by NWS Sterling, VA

Home | Current Version | Previous Version | Graphics & Text | Print | Product List | Glossary On
Versions: 1 2 3 4 5 6 7 8 9 10 11 12 13 14 15 16 17 18 19 20 21 22 23 24 25 26 27
000
ASUS41 KLWX 290310
RWRLWX

REGIONAL WEATHER ROUNDUP
NATIONAL WEATHER SERVICE BALTIMORE MD/WASHINGTON DC
1100 PM EDT THU JUL 28 2016

Note: "FAIR" indicates few or no clouds below 12,000 feet
with no significant weather and/or obstructions to visibility.
 TC=TEMPERATURE CELSIUS

 * =Non NWS site. Station does not report precipitation (e.g. rain,
    snow, etc.), thunder, or fog.

DCZ001-MDZ009-015-VAZ040>042-051-053>054-290400-
WASHINGTON METRO

CITY           SKY/WX    TMP DP  RH WIND       PRES   REMARKS
WASHINGTON NAT LGT RAIN  78  74  87 N8        29.85S
DULLES         RAIN      74  73  97 S3        29.86F FOG
ANDREWS AFB    LGT RAIN  75  74  95 NE6       29.84F
FT BELVOIR     LGT RAIN  76  74  94 N3        29.84S
QUANTICO       LGT RAIN  78  75  90 E8        29.83F
LEESBURG*      CLOUDY    75  75 100 CALM      29.88F
MANASSAS*      CLOUDY    75  73  94 NE7       29.84F
GAITHERSBURG*  CLOUDY    73  70  88 CALM      29.90S

$$

MDZ006>007-011-014-290400-
BALTIMORE METRO

CITY           SKY/WX    TMP DP  RH WIND       PRES   REMARKS
BWI AIRPORT    LGT RAIN  76  73  91 SE8       29.85F FOG
MD SCIENCE CTR   N/A     76  73  91 MISG      29.84F
MARTIN STATE   LGT RAIN  75  75 100 CALM      29.86F
ANNAPOLIS      LGT RAIN  77  74  90 N5        29.85R
FORT MEADE*    CLOUDY    73  72  94 E5        29.88R

$$

MDZ012-015-019>023-290400-
MARYLAND EASTERN SHORE

CITY           SKY/WX    TMP DP  RH WIND       PRES   REMARKS
OCEAN CITY       N/A    N/A N/A N/A MISG      29.85R
SALISBURY      NOT AVBL
BAY BRIDGE AP* LGT RAIN  75  75 100 N5        29.86R
CAMBRIDGE*     CLOUDY    72  72 100 CALM      29.86R
EASTON*        LGT RAIN  76  76 100 CALM      29.91R

$$

MDZ017>025-290400-
SOUTHERN MARYLAND

CITY           SKY/WX    TMP DP  RH WIND       PRES   REMARKS
PATUXENT RIVER TSTM      74  72  93 SE9       29.82F FOG
ST INIGOES     TSTM      75  73  93 E5        29.82F
LEONARDTOWN*   CLOUDY    75  73  94 E6        29.83F

$$

MDZ003>005-290400-
NORTH CENTRAL MARYLAND

CITY           SKY/WX    TMP DP  RH WIND       PRES   REMARKS
FREDERICK*     CLOUDY    73  73 100 NW3       29.89F
HAGERSTOWN APT CLOUDY    73  71  93 N7        29.90R FOG

$$

MDZ501>502-290400-
WESTERN MARYLAND

CITY           SKY/WX    TMP DP  RH WIND       PRES   REMARKS
OAKLAND*       MOCLDY    63  63 100 CALM      30.01S FOG
CUMBERLAND*    CLOUDY    72  72 100 NW3       29.96R

$$

VAZ025>031-290400-
SHENANDOAH VALLEY

CITY           SKY/WX    TMP DP  RH WIND       PRES   REMARKS
WINCHESTER*    RAIN      72  70  94 CALM      29.88F
FRONT ROYAL*   CLOUDY    70  70 100 CALM      29.88F
LURAY*         NOT AVBL
NEW MARKET*    CLOUDY   N/A N/A N/A N5        29.88F
STAUNTON*      CLOUDY    71  69  92 N6        29.92S
WAYNESBORO*    CLOUDY    71  69  93 NW5       29.91F

$$

WVZ021-048>050-054>055-290400-
EASTERN WEST VIRGINIA PANHANDLE

CITY           SKY/WX    TMP DP  RH WIND       PRES   REMARKS
MARTINSBURG    LGT RAIN  71  70  96 N5        29.88F FOG
PETERSBURG*    DRIZZLE   72  71  97 CALM      29.92F

$$

VAZ036>039-050-290400-
CENTRAL FOOTHILLS

CITY           SKY/WX    TMP DP  RH WIND       PRES   REMARKS
CHARLOTTESVILL CLOUDY    76  68  76 NE13      29.86F
CULPEPER*      CLOUDY    74  73  99 CALM      29.86F
ORANGE*          N/A     73  73 100 NW6       29.87F
GORDONSVILLE*  CLOUDY    73  72  96 N6        29.85S
WARRENTON*     CLOUDY    75  70  84 NW6       29.85F

$$

VAZ055>057-290400-
NORTH AND CENTRAL PIEDMONT

CITY           SKY/WX    TMP DP  RH WIND       PRES   REMARKS
FREDERICKSBRG* CLOUDY    76  76 100 NE3       29.82F
STAFFORD*      RAIN      74  73  94 N5        29.87F

$$

NCZ024-NYZ072-PAZ021-071-VAZ022-071-290400-
OTHER REGIONAL OBSERVATIONS

CITY           SKY/WX    TMP DP  RH WIND       PRES   REMARKS
NEW YORK CITY  CLOUDY    79  68  69 VRB5      29.91R HAZE
PHILADELPHIA   LGT RAIN  76  72  87 N3        29.87F
PITTSBURGH     MOCLDY    69  67  93 CALM      29.92F
ROANOKE        MOCLDY    72  71  97 NW3       29.93S
RICHMOND       TSTM      76  75  97 NE9       29.83R
RALEIGH        PTCLDY    85  71  63 SW14      29.86S HX  90

$$

ANZ530>537-290400-
MARINE OBSERVATIONS

STATION/POSITION TIME  TEMP    WIND        PRES
                       AIR SEA DIR/SP/G
                 (UTC) (F)     (DEG/KT/KT) (MB)
THOMAS PT LIGHT  0300   78 84   50/  7/  8 1011.7R
BALT KEY BRIDGE  0248           40/  5/  6 1010.6F
COVE POINT       0248          160/ 13/ 17 1010.2F
LEWISETTA        0236      86  340/ 14/ 18 1010.7R
SOLOMONS ISLAND  0236      86  110/ 10/ 12   N/A
PINEY POINT      0248          110/  4/  5   N/A

$$





USA.gov is the U.S. government's official web portal to all federal, state and local government web resources and services.